Regional Weather Roundup
Issued by NWS Upton, NY

Current Version | Previous Version | Text Only | Print | Product List | Glossary On
Versions: 1 2 3 4 5 6 7 8 9 10 11 12 13 14 15 16 17 18 19 20 21 22 23 24 25 26 27
000
ASUS41 KOKX 160508
RWROKX

Regional Weather Roundup
National Weather Service New York NY
1200 AM EST TUE JAN 16 2018

Note: "FAIR" indicates few or no clouds below 12,000 feet with no
significant weather and/or obstructions to visibility.

NYZ071-072-176-178-NJZ106-104-160600-
New York City Metro Area

CITY           SKY/WX    TMP DP  RH WIND       PRES   REMARKS
Central Park   CLOUDY    25  17  72 VRB5      30.50F WCI  19
Bronx Bot Gard   N/A     23  14  68 E5        30.49F WCI  17
Bronx Lehman C   N/A     25  16  68 E2          N/A
LaGuardia Arpt MOCLDY    24  16  71 E6        30.49F WCI  17
Queens College   N/A     25  18  74 E3          N/A
Kennedy Intl   MOCLDY    23  17  78 NE5       30.51F WCI  17
Breezy Point     N/A    N/A N/A N/A NE7         N/A
Brooklyn Coll    N/A     27  18  69 NE5         N/A  WCI  21
Staten Island    N/A     25  19  80 CALM        N/A
Newark/Liberty MOCLDY    24  18  77 N6        30.51F WCI  17
Teterboro      FAIR      24  15  68 N3        30.50F
$$

NYZ177-179-078>081-160600-
Long Island New York

CITY           SKY/WX    TMP DP  RH WIND       PRES   REMARKS
Jones Beach      N/A    N/A N/A N/A NE8         N/A
Wantagh          N/A     21  18  86 N3          N/A
Matinecock Pt    N/A    N/A N/A N/A E8          N/A
Farmingdale    CLOUDY    22  17  81 CALM      30.50F
MacArthur/ISP  CLOUDY    25  21  85 CALM      30.49F
Shirley        FAIR      21  18  88 CALM      30.50F
Mt Sinai Harb    N/A    N/A N/A N/A NE3         N/A
Westhampton    FAIR      22  17  81 CALM      30.50F
East Hampton   CLOUDY    25  20  82 N6        30.47F WCI  18
Southold         N/A     27  19  74 E6          N/A  WCI  20
Montauk          N/A     30  22  72 NE9       30.50S WCI  22
$$

NYZ052-065-067-160600-
Hudson Valley

CITY           SKY/WX    TMP DP  RH WIND       PRES   REMARKS
White Plains   FAIR      19  11  70 NE3       30.46F
Larchmont Harb   N/A    N/A N/A N/A N7          N/A
Croton On Huds   N/A    N/A N/A N/A MISG        N/A
Somers           N/A     21  14  73 E1          N/A
Brewster         N/A     21  14  73 NW1         N/A
Newburgh       CLOUDY    21  16  79 CALM      30.48F
Montgomery     CLOUDY    21  12  68 N5        30.47F WCI  15
Otisville        N/A     21  16  79 N2          N/A
Warwick          N/A     18  14  86 SE2         N/A
Suffern          N/A     21  18  86 SW1         N/A
Poughkeepsie   CLOUDY    21  11  65 CALM      30.50F
Albany         CLOUDY    14   5  67 N3        30.51S
$$

NJZ001-105-106-008-010-013-015-019>022-104-160600-
New Jersey

CITY           SKY/WX    TMP DP  RH WIND       PRES   REMARKS
Newark/Liberty MOCLDY    24  18  77 N6        30.51F WCI  17
Teterboro      FAIR      24  15  68 N3        30.50F
Caldwell       MOCLDY    22  16  78 CALM      30.51S
Somerville     CLOUDY    25  18  74 CALM      30.48F
Linden         FAIR      25  17  72 CALM      30.51F
Perth Amboy      N/A    N/A N/A N/A NE7         N/A
Sussex         MOCLDY    17  13  84 CALM      30.46S
Andover          N/A     18  14  84 CALM      30.46F
Trenton        CLOUDY    27  21  78 NE7       30.47F WCI  19
Millville      CLOUDY    26  26 100 CALM      30.47S
Atlantic City  FAIR      24  22  91 NW3       30.46F
Wrightstown    CLOUDY    25  22  89 NE7       30.44F WCI  17
Toms River     FAIR      24  22  91 NE5       30.46F WCI  18
Belmar         CLOUDY    29  25  85 NE5       30.47F WCI  24
$$

PAZ047>061-062-071-160600-
Eastern Pennsylvania

CITY           SKY/WX    TMP DP  RH WIND       PRES   REMARKS
Philadelphia   CLOUDY    29  23  78 CALM      30.49F
Allentown      CLOUDY    27  16  63 NE6       30.47R WCI  20
Scranton       CLOUDY    24  16  71 CALM      30.40F
$$

CTZ002-004>006-009-010-012-RIZ004-006-007-MAZ004-011-015-160600-
Southern New England

 In CT

CITY           SKY/WX    TMP DP  RH WIND       PRES   REMARKS
Bradley Intl   CLOUDY    21   8  57 N7        30.50F WCI  12
Hartford       CLOUDY   N/A N/A N/A N7        30.51F
Danbury        CLOUDY    20  11  68 CALM      30.48F
Wtrbury/Oxford FAIR      16  10  77 CALM      30.45F
Norwalk Harbor   N/A    N/A N/A N/A N6          N/A
Bridgeport     FAIR      21  11  65 CALM      30.51F
Meriden        FAIR      20   8  60 NW3       30.50F
New Haven      FAIR      21  10  62 CALM      30.50S
Chester        FAIR      21  18  86 NE3       30.46F
Groton         CLOUDY    24  14  65 N9        30.49F WCI  14
Willimantic    CLOUDY    23  13  65 N3        30.50F

 In RI

CITY           SKY/WX    TMP DP  RH WIND       PRES   REMARKS
Providence     CLOUDY    23  10  57 N8        30.52S WCI  14
Block Island   CLOUDY    26  22  84 NE14      30.49S WCI  14
Westerly       CLOUDY    24  16  71 N6        30.50F WCI  17

In MA

CITY           SKY/WX    TMP DP  RH WIND       PRES   REMARKS
Boston         CLOUDY    20   9  62 NW12      30.53F WCI   8
Worcester      CLOUDY    17   0  47 NE6       30.44F WCI   9
Westfield      CLOUDY    20   7  57 N6        30.50F WCI  12
Provincetown   CLOUDY    30  27  88 MISG        N/A
Nantucket      CLOUDY    31  31 100 N17       30.42F WCI  19
$$

ANZ330-335-338-340-345-350-353-355-160600-
Coastal Marine Observations


STATION/POSITION TIME  SKY/WX   TEMP    WIND        PRES    VSBY  WAVE
                                AIR SEA DIR/SP/G                  HT/PER
                 (UTC)          (F)     (DEG/KT/KT) (MB)    (MI)  (FT/S)
NY Harb Entrance 0350            29 41   70/ 12/ 16 1032.3          4/ 8
20 S Fire Island 0350            30 40   90/ 10/ 14 1032.8          6/ 7
15 E Barnegat Li 0430               42                N/A           6/ 8
Hudson Canyon    0350            37 51   30/ 14/ 16 1031.9          8/ 8
Kings Point      0436            23 32  120/  1/  3 1033.9
Execution Rocks  NOT AVBL
Western LI Sound NOT AVBL
Central LI Sound 0430            26      70/ 10/ 12   N/A           1
Robbins Reef     0436            25      80/  8/  9 1033.7
$$


>>>>>>>>>>>>>>>>>>>>>>>>>>>> KEY <<<<<<<<<<<<<<<<<<<<<<<<<<<
>                                                          <
>     SKY/WX - Sky Condition/Present Weather               <
>     TMP    - Temperature in Fahrenheit                   <
>     DP     - Dew Point in Fahrenheit                     <
>     RH     - Relative Humidity in Percent                <
>     WIND   - Direction (from) and Speed in MPH           <
>     PRES   - Mean Sea Level Pressure (inches of Hg)      <
>     WCI    - Wind Chill Index                            <
>     VSB    - Visibility in Miles                         <
>     HX     - Heat Index                                  <
>     TC     - Temperature in Celsius                      <
>     VRB    - Varibale Wind Direction                     <
>                                                          <
>>>>>>>>>>>>>>>>>>>>>>>>>>>> KEY <<<<<<<<<<<<<<<<<<<<<<<<<<<




USA.gov is the U.S. government's official web portal to all federal, state and local government web resources and services.